Regional Weather Roundup
Issued by NWS

Home | Current Version | Previous Version | Text Only | Print | Product List | Glossary On
Versions: 1 2 3 4 5 6 7 8 9 10 11 12 13 14 15 16 17 18 19 20 21 22 23 24 25 26 27 28 29 30 31 32 33 34 35 36 37 38 39 40 41 42 43 44 45 46 47 48 49 50
000
ASUS43 KDMX 301207
RWRIA

WEATHER ROUNDUP FOR IOWA
NATIONAL WEATHER SERVICE DES MOINES IA
700 AM CDT WED JUL 30 2014

NOTE: "FAIR" INDICATES FEW OR NO CLOUDS BELOW 12,000 FEET WITH NO
SIGNIFICANT WEATHER AND/OR OBSTRUCTIONS TO VISIBILITY.

* - THESE STATIONS ARE NOT NWS STATIONS...THUS NOT UNDER NWS
QUALITY CONTROL.  THEY ALSO DO NOT REPORT WEATHER SUCH
AS PRECIPITATION OR FOG.

IAZ001>003-012>014-020>022-031>034-043>046-301300-
   NORTHWEST IOWA

CITY           SKY/WX    TMP DP  RH WIND       PRES   REMARKS
CARROLL *      CLEAR     52  52 100 NW7       30.13S
CHEROKEE *     CLEAR     50  50 100 CALM      30.15R FOG
DENISON *      CLEAR     52  52 100 CALM      30.13R
LE MARS *      CLEAR     50  50 100 CALM      30.16R
ORANGE CITY *  CLEAR     55  52  88 CALM      30.15S
SHELDON *      CLEAR     48  48 100 CALM      30.14R FOG
SIOUX CITY     CLEAR     53  52  96 NW6       30.15S
6HR MIN TEMP:  51; 6HR MAX TEMP:  56;

SPENCER        CLEAR     51  49  92 W3        30.14R
6HR MIN TEMP:  48; 6HR MAX TEMP:  54;

STORM LAKE *   CLEAR     55  54  94 CALM      30.15R
$$

IAZ055>058-069>071-079>083-090>094-301300-
   SOUTHWEST IOWA

CITY           SKY/WX    TMP DP  RH WIND       PRES   REMARKS
ATLANTIC *     CLEAR     50  48  93 N3        30.13S
AUDUBON *      CLEAR     54  52  94 CALM      30.14S
CLARINDA *     CLEAR     52  52 100 NE3       30.15R
COUNCIL BLFS * CLEAR     57  57 100 N3        30.13S
CRESTON *      CLEAR     54  52  94 NW3       30.13R
HARLAN  *      CLEAR     50  50 100 CALM      30.17S
LAMONI         CLEAR     58  53  84 NW5       30.12R
6HR MIN TEMP:  56; 6HR MAX TEMP:  61;

RED OAK *      PTCLDY    54  50  87 CALM      30.14R
SHENANDOAH *   CLEAR     52  52 100 CALM      30.15R FOG
$$

IAZ047>049-059>061-072>074-084-301300-
   CENTRAL IOWA

CITY           SKY/WX    TMP DP  RH WIND       PRES   REMARKS
AMES           CLEAR     54  52  93 CALM      30.11R
6HR MIN TEMP:  53; 6HR MAX TEMP:  57;

ANKENY *       CLEAR     55  55 100 NW5       30.11R
CHARITON *     CLEAR     57  54  88 W5        30.11R
DES MOINES     PTCLDY    59  54  83 CALM      30.10S
6HR MIN TEMP:  58; 6HR MAX TEMP:  63;

GRINNELL*      CLEAR     57  55  94 NW5       30.10R
KNOXVILLE *    CLEAR     55  54  94 W6        30.09R
MARSHALLTOWN   CLEAR     56  54  93 W6        30.09R
6HR MIN TEMP:  54; 6HR MAX TEMP:  58;

PELLA *        CLEAR     58  57  96 W5        30.11R
PERRY *          N/A     54  54 100 N5        30.11S
$$

IAZ004>006-015-016-023>025-035-036-301300-
   NORTH CENTRAL IOWA

CITY           SKY/WX    TMP DP  RH WIND       PRES   REMARKS
ALGONA *       CLEAR     57  54  88 NW5       30.12S
CLARION *      CLEAR     54  54 100 CALM      30.11R
ESTHERVILLE    PTCLDY    55  53  93 NW6       30.13R
6HR MIN TEMP:  54; 6HR MAX TEMP:  56;

FORT DODGE *   CLEAR     54  50  87 CALM      30.12R
MASON CITY     CLEAR     56  54  93 NW8       30.12R
6HR MIN TEMP:  52; 6HR MAX TEMP:  57;

FOREST CITY *  CLEAR     55  54  94 E3        30.12R
IOWA FALLS *     N/A     55  54  94 W5        30.11R
$$

IAZ007>011-017>019-026>030-037>042-050>054-066-301300-
   NORTHEAST IOWA

CITY           SKY/WX    TMP DP  RH WIND       PRES   REMARKS
CEDAR RAPIDS   CLEAR     55  50  83 NW3       30.07R
6HR MIN TEMP:  53; 6HR MAX TEMP:  60;

CHARLES CITY * CLEAR     55  54  94 NW5       30.09S
CLINTON *      SUNNY     57  55  94 CALM      30.09R
DECORAH *      SUNNY     57  57 100 CALM      30.07R
DUBUQUE        SUNNY     58  56  93 CALM      30.06S
6HR MIN TEMP:  55; 6HR MAX TEMP:  61;

MONTICELLO *   MOSUNNY   57  55  94 CALM      30.06S
OELWEIN *      CLEAR     55  55 100 NW5       30.09R
WATERLOO       CLEAR     56  54  93 CALM      30.08R
6HR MIN TEMP:  54; 6HR MAX TEMP:  60;

$$

IAZ064-065-067-068-078-301300-
   EAST CENTRAL IOWA

CITY           SKY/WX    TMP DP  RH WIND       PRES   REMARKS
DAVENPORT      SUNNY     54  53  97 VRB3      30.06S FOG
6HR MIN TEMP:  53; 6HR MAX TEMP:  60;

IOWA CITY      CLEAR     59  56  89 CALM      30.08S
6HR MIN TEMP:  57; 6HR MAX TEMP:  62;

MT. PLEASANT * CLEAR     57  56  95 W3        30.08R
MUSCATINE *    SUNNY     59  57  94 CALM      30.07R
QUAD CITIES    SUNNY     58  55  90 CALM      30.06R
6HR MIN TEMP:  55; 6HR MAX TEMP:  63;

$$

IAZ062-063-075>077-085>089-095>099-301300-
   SOUTHEAST IOWA

CITY           SKY/WX    TMP DP  RH WIND       PRES   REMARKS
BURLINGTON     CLEAR     57  56  96 CALM      30.07S
6HR MIN TEMP:  55; 6HR MAX TEMP:  62;

FAIRFIELD *    CLEAR     57  55  94 NW5       30.09R
FORT MADISON * CLEAR     61  59  94 CALM      30.08S
KEOKUK *       CLEAR     59  57  94 NW3       30.07S
OSKALOOSA *      N/A     56  55  97 W5        30.09S
CENTERVILLE *  CLEAR     55  55 100 W3        30.12R
OTTUMWA        CLEAR     57  56  96 W3        30.09R
6HR MIN TEMP:  55; 6HR MAX TEMP:  59;

WASHINGTON *   CLEAR     57  57 100 W5        30.08R
$$

ABBREVIATIONS USED IN REMARKS
   TC - TEMPERATURES IN CELSIUS
  WCI - WIND CHILL INDEX
   HX - HEAT INDEX
  VSB - VISIBILITY
$$




USA.gov is the U.S. government's official web portal to all federal, state and local government web resources and services.